This demonstration page uses our WeatherBlox Daily Observations layout. Learn more.

Left ArrowRight Arrow

Hourly Observations for March 3, 2020

Temp ( °F °C ) Dew Point ( °F °C ) Humidity (%) Winds ( mph kmh ) Pressure ( in mb ) Visibility ( mi km ) Precip ( " mm )
12:54 am 00:54 Clear 39 3.9 29 -1.7 67 67 W 3 6 29.71 1006 10 16.0934 0 0
1:54 am 01:54 Clear 38 3.3 28 -2.2 68 68 W 12 19 29.74 1007 10 16.0934 0 0
2:54 am 02:54 Clear 38 3.3 25 -3.9 60 60 WNW 13 20 29.75 1007 10 16.0934 0 0
3:54 am 03:54 Clear 36 2.2 24 -4.4 62 62 WNW 8 13 29.75 1008 10 16.0934 0 0
4:54 am 04:54 Clear 35 1.7 23 -5 61 61 W 3 6 29.77 1008 10 16.0934 0 0
5:54 am 05:54 Clear 32 0 23 -5 69 69 WSW 7 11 29.81 1009 10 16.0934 0 0
6:54 am 06:54 Clear 31 -0.6 22 -5.6 69 69 W 6 9 29.84 1010 10 16.0934 0 0
7:54 am 07:54 Sunny 34 1.1 23 -5 64 64 W 6 9 29.85 1011 10 16.0934 0 0
8:54 am 08:54 Sunny 40 4.4 25 -3.9 55 55 WSW 8 13 29.86 1011 10 16.0934 0 0
9:54 am 09:54 Sunny 47 8.3 27 -2.8 46 46 NNW 6 9 29.84 1011 10 16.0934 0 0
10:54 am 10:54 Sunny 51 10.6 26 -3.3 38 38 W 6 9 29.83 1010 10 16.0934 0 0
11:54 am 11:54 Sunny 53 11.7 24 -4.4 32 32 VRB 7 11 29.82 1010 10 16.0934 0 0
12:54 pm 12:54 Sunny 57 13.9 22 -5.6 26 26 W 14 22 29.81 1009 10 16.0934 0 0
1:54 pm 13:54 Sunny 59 15 21 -6.1 23 23 WSW 21 33 29.77 1008 10 16.0934 0 0
2:54 pm 14:54 Sunny 60 15.6 22 -5.6 23 23 WSW 17 28 29.75 1008 10 16.0934 0 0
3:54 pm 15:54 Sunny 60 15.6 22 -5.6 23 23 WSW 18 30 29.75 1008 10 16.0934 0 0
4:54 pm 16:54 Sunny 60 15.6 21 -6.1 22 22 W 20 31 29.77 1008 10 16.0934 0 0
5:54 pm 17:54 Mostly Cloudy 57 13.9 22 -5.6 26 26 WSW 8 13 29.77 1008 10 16.0934 0 0
6:54 pm 18:54 Cloudy 58 14.4 29 -1.7 33 33 WSW 15 24 29.78 1008 10 16.0934 0.001 0.001
7:54 pm 19:54 Mostly Cloudy 58 14.4 27 -2.8 31 31 WSW 13 20 29.78 1008 10 16.0934 0 0
8:54 pm 20:54 Cloudy 56 13.3 27 -2.8 33 33 W 15 24 29.8 1009 10 16.0934 0 0
9:54 pm 21:54 Cloudy 55 12.8 28 -2.2 35 35 NW 14 22 29.84 1011 10 16.0934 0 0
10:54 pm 22:54 Mostly Clear 51 10.6 32 0 48 48 NW 17 28 29.88 1012 10 16.0934 0 0
11:54 pm 23:54 Clear 47 8.3 33 0.6 59 59 NW 13 20 29.91 1013 10 16.0934 0 0

Powered by AerisWeather